Reflectivity
-20 -20 -20 -20 -20 -20 -20 -20 -20 -20 -20 -20 -20 -20 -20 -20 -20 -20 -20 -20 -20 -20 -20 -20 -20 -20 -20 -20 -20 -20 -20 -17 1
-20 -20 -20 -20 -20 -20 -20 -20 -20 -20 -20 -20 -20 -20 -20 -20 -20 -20 -20 -20 -20 -20 -20 -20 -20 -20 -13 -19 0 -15 -20 -12 -20
-20 -20 -20 -20 -20 -20 -20 -20 -20 -20 -20 -20 -20 -20 -20 -20 -20 -20 -20 5 -20 -12 -0 16 14 16 7 6 14 12 14 15 13
-20 -20 -20 -20 -20 -20 -20 -20 -20 -20 -20 -20 -20 -20 -20 -20 -20 -20 -20 -20 -20 7 22 12 12 0 2 -4 -19 -20 -17 -14 6
-20 -20 -20 -20 -20 -20 -20 -20 -20 -20 -20 -20 -20 -20 -20 -20 -20 -20 -20 -2 25 -2 8 -17 12 -14 -20 -20 -20 -17 3 3 -19
-20 -20 -20 -20 -20 -20 -20 -20 -20 -20 -20 -20 -20 -20 -20 -20 -20 -20 2 23 13 -3 -20 12 3 -17 1 2 -6 -20 10 -20 -20
-20 -20 -20 -20 -20 -20 -20 -20 -20 -20 -20 -20 -20 -20 -20 -2 -20 -20 19 15 5 1 12 1 -20 -6 -19 -20 -20 -12 11 -20 7
-20 -20 -20 -20 -20 -20 -20 -20 -20 -20 -20 -20 -20 -20 -20 10 8 13 16 11 -19 1 -20 -2 11 -9 -20 -20 -12 -20 6 -20 -20
-20 -20 -20 -20 -20 -20 -20 -20 -20 -20 -20 -20 -20 -20 -20 -20 -14 15 13 15 4 11 9 3 -16 -20 -20 -20 -20 -19 17 -20 -20
-20 -20 -20 -20 -20 -20 -20 -20 -20 -20 -20 -20 -20 -20 -8 -20 -3 16 -14 -0 -12 5 12 15 -8 -20 -20 -20 -20 18 -13 -20 -16
-20 -20 -20 -20 -20 -20 -20 -20 -20 -20 -20 -20 -20 -20 -20 -18 -7 -20 -7 5 -20 6 7 15 6 -15 -20 -20 -20 -8 -20 -20 -20
-20 -20 -20 -20 -20 -20 -20 -20 -20 -20 -20 -20 -20 -20 -20 -20 -20 -20 -20 -20 -20 -20 7 14 8 -20 -15 16 -10 -20 -0 -19 -20
-20 -20 -20 -20 -20 -20 -20 -20 -20 -20 -20 -20 -20 -20 -20 -20 -20 -20 -20 -20 -20 -20 -20 11 10 -20 -1 17 15 1 -20 -19 -18
-20 -20 -20 -20 -20 -20 -20 -20 -20 -20 -20 -20 -20 -20 -20 -20 -20 -20 -20 -20 -20 -20 -20 -20 -20 -20 -20 -20 6 6 -15 -20 10
-20 -20 -20 -20 -20 -20 -20 -20 -20 -20 -20 -20 -20 -20 -20 -20 -20 -20 -20 -20 -20 -20 -20 -20 -20 -20 -20 -20 -20 -20 1 8 1
-20 -20 -20 -20 -20 -20 -20 -20 -20 -20 -20 -20 -20 -20 -20 -20 -20 -20 -20 -20 -20 -20 -20 -20 -20 -20 -20 -20 -20 -20 13 -1 1
-20 -20 -20 -20 -20 -20 -20 -20 -20 -20 -20 -20 -20 -20 -20 -20 -20 -20 -20 -20 -20 -20 -20 -20 -20 -20 -20 -20 -20 -20 -20 -2 -0
-20 -20 -20 -20 -20 -20 -20 -20 -20 -20 -20 -20 -20 -20 -20 -20 -20 -20 -20 -20 -20 -20 -20 -20 -20 -20 -20 -20 -20 -20 -20 -11 12
-20 -20 -20 -20 -20 -20 -20 -20 -20 -20 -20 -20 -20 -20 -20 -20 -20 -20 -20 -20 -20 -20 -20 -20 -20 -20 -20 -20 -20 -20 -20 -5 11
-20 -20 -20 -20 -20 -20 -20 -20 -20 -20 -20 -20 -20 -20 -20 -20 -20 -20 -20 -20 -20 -20 -20 -20 -20 -20 -20 -20 -20 -20 -20 2 8
Wind_Speed
12 11 11 11 11 11 12 12 12 13 12 11 12 11 6 5 8 9 7 12 11 13 14 12 13 14 15 15 15 15 15 15 15
13 13 12 12 11 13 13 12 13 13 12 11 11 10 4 9 9 9 9 11 12 14 13 14 15 15 15 16 17 17 15 16 14
15 14 13 13 13 13 12 13 14 12 12 12 11 9 4 8 9 10 9 11 13 13 14 14 17 19 20 20 19 18 17 17 17
15 15 14 13 13 13 12 14 14 13 12 12 11 9 5 10 8 9 8 9 13 12 18 19 19 19 19 18 17 17 16 16 16
14 13 12 12 13 13 13 15 14 14 13 11 9 4 4 10 8 9 7 10 15 21 19 18 17 17 17 17 16 15 14 16 15
13 12 10 11 12 13 15 15 15 14 12 10 5 4 5 6 7 8 8 15 20 19 18 16 17 18 17 15 14 13 15 16 14
10 10 9 11 12 11 16 14 11 6 8 6 4 6 3 7 7 7 10 18 19 17 16 16 17 16 14 14 14 14 14 15 16
8 7 7 9 10 8 10 9 5 8 7 6 6 9 6 6 5 7 12 17 18 16 17 16 16 15 12 16 14 12 14 16 15
8 6 7 7 6 9 8 6 8 8 9 9 8 11 7 5 6 8 10 15 17 17 16 15 15 13 15 15 13 11 13 16 16
7 8 7 7 7 7 7 8 8 8 9 8 8 9 8 8 5 5 13 14 15 15 14 14 13 14 15 14 11 13 16 16 14
8 8 7 7 7 8 8 8 8 7 8 8 8 7 6 7 7 6 9 15 14 12 14 12 13 13 13 13 12 12 14 15 14
9 8 8 7 7 10 8 8 8 7 7 8 7 6 7 6 6 5 5 9 14 13 13 11 11 13 11 12 12 11 13 13 12
9 8 8 8 8 8 8 8 8 8 7 7 6 6 5 6 6 5 5 4 6 9 11 10 10 12 12 11 11 12 12 12 12
9 8 8 10 8 8 8 8 8 8 7 7 6 5 5 5 4 6 6 6 4 6 10 10 11 12 13 13 11 11 10 11 13
9 8 10 9 8 8 8 9 8 8 8 7 6 5 4 4 4 5 4 5 5 5 5 6 8 11 11 12 10 9 9 12 12
11 8 10 9 9 10 11 10 11 8 8 8 6 5 4 5 4 4 4 5 5 5 4 3 3 6 9 12 11 11 9 9 10
11 11 10 11 9 11 11 11 9 7 9 5 6 5 4 4 4 3 3 5 4 4 4 5 4 4 5 7 11 12 11 10 9
12 13 11 11 10 9 11 12 11 8 9 8 2 4 4 7 4 5 4 5 4 4 4 4 4 4 5 3 6 12 10 8 9
13 12 12 12 9 11 11 10 10 9 10 5 4 0 4 5 5 4 4 4 4 5 4 4 5 4 4 4 8 8 9 9 11
14 13 13 12 9 11 12 12 11 9 9 8 7 5 4 2 3 6 6 5 4 4 3 4 4 4 4 3 6 7 7 7 10
Wind_Direction
114 111 109 107 105 107 105 100 99 99 92 88 89 91 99 171 96 99 73 72 83 71 69 66 66 67 66 62 54 56 54 51 44
126 122 120 115 112 111 104 101 102 97 93 91 93 88 18 102 98 98 93 86 78 78 78 84 85 79 75 70 66 62 59 50 53
130 130 130 124 122 115 111 112 108 103 100 101 92 75 357 98 91 89 88 82 89 89 87 88 80 71 65 58 60 59 56 54 49
134 134 132 129 128 126 120 121 111 104 106 99 85 69 353 96 91 102 101 101 99 92 88 73 72 65 59 55 52 49 47 46 41
131 123 128 125 127 130 124 119 109 102 102 95 79 73 253 98 110 94 107 113 94 84 76 70 69 65 63 55 54 56 49 47 40
154 93 126 128 128 127 127 118 108 100 92 84 70 350 59 98 99 106 108 102 92 82 77 74 72 67 63 63 58 50 51 50 41
125 111 111 118 119 123 125 121 120 146 123 117 180 76 74 97 99 103 109 100 90 85 83 77 73 68 59 58 50 48 50 51 43
147 138 140 134 147 131 135 149 121 115 124 125 103 92 79 74 45 101 120 101 97 93 90 82 75 69 65 58 55 50 46 50 43
151 148 144 147 153 143 149 137 124 116 124 125 111 92 69 74 60 46 79 99 102 97 92 85 77 69 64 58 53 59 50 50 45
151 147 151 148 150 145 142 139 131 123 118 117 110 104 92 77 74 61 48 67 82 81 81 81 75 68 62 62 54 50 58 51 49
154 149 148 147 152 147 147 142 135 128 124 117 114 111 105 104 106 102 70 54 58 77 78 63 61 58 65 68 54 46 51 61 50
154 149 151 149 149 148 137 137 139 133 126 121 116 113 109 104 92 81 97 94 55 64 65 61 62 57 62 64 65 57 58 56 56
158 157 151 151 152 154 149 150 145 139 137 133 125 119 113 107 103 101 102 96 113 86 66 71 67 57 57 54 56 59 50 44 46
163 160 150 157 159 160 155 152 150 144 137 131 127 123 124 123 125 116 111 100 99 105 87 76 60 57 49 44 39 46 48 42 44
162 159 157 161 165 160 164 156 157 150 142 136 130 124 122 133 141 138 135 123 130 113 133 143 83 65 57 45 36 38 35 44 52
167 165 161 167 174 168 169 159 153 149 151 138 131 122 135 144 150 159 150 141 149 145 141 120 111 103 74 43 29 22 28 38 49
174 170 171 173 176 171 169 169 161 156 174 169 157 160 161 170 169 169 164 150 157 157 149 123 102 84 79 57 34 20 12 12 61
180 178 176 176 180 177 178 178 175 165 182 202 200 161 193 154 174 178 173 168 159 146 141 126 101 93 79 63 61 14 3 8 59
183 182 182 179 181 182 184 185 188 178 181 185 206 340 115 195 168 190 167 169 162 153 146 136 121 109 88 84 52 5 354 16 49
185 186 184 185 188 189 186 184 193 195 187 198 174 188 180 199 169 164 176 172 169 162 160 144 131 111 91 74 63 31 27 40 61